TimePST,TemperatureF,Dew PointF,Humidity,Sea Level PressureIn,VisibilityMPH,Wind Direction,Wind SpeedMPH,Gust SpeedMPH,PrecipitationIn,Events,Conditions,WindDirDegrees,DateUTC
12:56 AM,26.1,24.1,92,30.02,10.0,Calm,Calm,-,N/A,,Overcast,0,2013-02-21 08:56:00
1:34 AM,26.6,24.8,93,29.95,10.0,Calm,Calm,-,N/A,,Overcast,0,2013-02-21 09:34:00
1:56 AM,25.0,21.9,88,30.04,10.0,Calm,Calm,-,N/A,,Scattered Clouds,0,2013-02-21 09:56:00
2:09 AM,24.8,21.2,86,29.95,10.0,Calm,Calm,-,N/A,,Mostly Cloudy,0,2013-02-21 10:09:00
2:56 AM,25.0,23.0,92,30.03,10.0,Calm,Calm,-,N/A,,Overcast,0,2013-02-21 10:56:00
3:56 AM,26.1,24.1,92,30.04,4.0,Calm,Calm,-,0.01,Snow,Light Snow,0,2013-02-21 11:56:00
4:56 AM,27.0,24.1,89,30.04,10.0,Calm,Calm,-,0.00,,Overcast,0,2013-02-21 12:56:00
5:35 AM,26.6,24.8,93,29.97,10.0,Calm,Calm,-,N/A,,Overcast,0,2013-02-21 13:35:00
5:56 AM,27.0,24.1,89,30.05,10.0,Calm,Calm,-,N/A,,Overcast,0,2013-02-21 13:56:00
6:56 AM,27.0,25.0,92,30.05,6.0,Calm,Calm,-,0.00,,Overcast,0,2013-02-21 14:56:00
7:04 AM,26.6,24.8,93,29.97,7.0,Calm,Calm,-,0.00,,Overcast,0,2013-02-21 15:04:00
7:56 AM,28.9,25.0,85,30.05,10.0,Calm,Calm,-,0.00,,Overcast,0,2013-02-21 15:56:00
8:40 AM,30.2,26.6,86,29.98,2.5,Calm,Calm,-,0.01,Snow,Light Snow,0,2013-02-21 16:40:00
8:56 AM,30.9,27.0,85,30.06,3.0,Calm,Calm,-,0.01,Snow,Light Snow,0,2013-02-21 16:56:00
9:10 AM,30.2,26.6,86,29.99,2.0,Calm,Calm,-,0.01,Snow,Light Snow,0,2013-02-21 17:10:00
9:17 AM,30.2,26.6,86,29.99,1.5,Calm,Calm,-,0.01,Snow,Light Snow,0,2013-02-21 17:17:00
9:23 AM,30.2,28.4,93,29.99,3.0,Calm,Calm,-,0.02,Snow,Light Snow,0,2013-02-21 17:23:00
9:56 AM,30.9,27.0,85,30.06,10.0,Calm,Calm,-,0.02,,Overcast,0,2013-02-21 17:56:00
10:56 AM,32.0,27.0,82,30.09,9.0,Calm,Calm,-,0.00,,Overcast,0,2013-02-21 18:56:00
11:29 AM,33.8,24.8,70,30.00,9.0,Variable,5.8,-,0.00,,Overcast,0,2013-02-21 19:29:00
11:56 AM,34.0,25.0,70,30.07,10.0,Variable,3.5,-,0.00,,Overcast,0,2013-02-21 19:56:00
12:40 PM,33.8,24.8,70,29.99,9.0,Variable,5.8,-,0.00,Snow,Light Snow,0,2013-02-21 20:40:00
12:56 PM,33.1,24.1,70,30.07,4.0,Variable,5.8,-,0.01,Snow,Light Snow,0,2013-02-21 20:56:00
1:05 PM,33.8,24.8,70,29.99,2.0,Variable,3.5,-,0.00,Snow,Light Snow,0,2013-02-21 21:05:00
1:11 PM,30.2,26.6,86,30.00,0.8,Variable,5.8,-,0.01,Snow,Light Snow,0,2013-02-21 21:11:00
1:25 PM,32.0,24.8,75,29.99,1.2,Variable,6.9,-,0.01,Snow,Light Snow,0,2013-02-21 21:25:00
1:30 PM,30.2,26.6,86,29.99,0.5,West,9.2,-,0.02,Snow,Snow,270,2013-02-21 21:30:00
1:38 PM,30.2,26.6,86,29.99,0.2,Variable,3.5,-,0.03,Fog-Snow,Snow,0,2013-02-21 21:38:00
1:44 PM,30.2,26.6,86,29.99,0.5,Variable,3.5,-,0.03,Fog-Snow,Snow,0,2013-02-21 21:44:00
1:56 PM,30.0,27.0,88,30.07,0.2,Variable,3.5,-,0.04,Fog-Snow,Snow,0,2013-02-21 21:56:00
2:56 PM,30.0,27.0,88,30.06,0.2,Variable,3.5,-,0.08,Fog-Snow,Snow,0,2013-02-21 22:56:00
3:12 PM,30.2,26.6,86,29.98,0.8,Variable,5.8,-,0.01,Snow,Light Snow,0,2013-02-21 23:12:00
3:48 PM,30.2,26.6,86,29.98,1.0,Calm,Calm,-,0.03,Snow,Light Snow,0,2013-02-21 23:48:00
3:56 PM,30.9,27.0,85,30.07,1.2,Calm,Calm,-,0.04,Snow,Light Snow,0,2013-02-21 23:56:00
4:16 PM,30.2,28.4,93,29.98,0.8,Calm,Calm,-,0.00,Snow,Light Snow,0,2013-02-22 00:16:00
4:47 PM,30.2,26.6,86,29.98,2.0,Calm,Calm,-,0.01,Snow,Light Snow,0,2013-02-22 00:47:00
4:56 PM,30.9,27.0,85,30.06,9.0,Variable,3.5,-,0.01,,Overcast,0,2013-02-22 00:56:00
5:56 PM,30.9,27.0,85,30.07,10.0,Calm,Calm,-,N/A,,Overcast,0,2013-02-22 01:56:00
6:56 PM,30.9,26.1,82,30.08,5.0,Calm,Calm,-,0.01,Snow,Light Snow,0,2013-02-22 02:56:00
7:29 PM,30.2,26.6,86,30.00,1.8,Variable,3.5,-,0.01,Snow,Light Snow,0,2013-02-22 03:29:00
7:41 PM,30.2,28.4,93,30.00,2.0,Variable,4.6,-,0.02,Snow,Light Snow,0,2013-02-22 03:41:00
7:48 PM,30.2,28.4,93,30.00,1.5,Calm,Calm,-,0.02,Snow,Light Snow,0,2013-02-22 03:48:00
7:56 PM,30.0,28.0,92,30.08,2.0,Calm,Calm,-,0.02,Snow,Light Snow,0,2013-02-22 03:56:00
8:14 PM,30.2,28.4,93,29.99,1.8,Calm,Calm,-,0.01,Snow,Light Snow,0,2013-02-22 04:14:00
8:35 PM,30.2,28.4,93,29.99,2.5,Calm,Calm,-,0.02,Snow,Light Snow,0,2013-02-22 04:35:00
8:42 PM,30.2,28.4,93,29.99,4.0,Calm,Calm,-,0.02,Snow,Light Snow,0,2013-02-22 04:42:00
8:56 PM,30.9,28.0,89,30.06,10.0,Calm,Calm,-,0.02,,Overcast,0,2013-02-22 04:56:00
9:56 PM,32.0,26.1,79,30.06,10.0,Calm,Calm,-,0.01,,Overcast,0,2013-02-22 05:56:00
10:56 PM,32.0,26.1,79,30.07,10.0,Calm,Calm,-,N/A,,Overcast,0,2013-02-22 06:56:00
11:56 PM,32.0,26.1,79,30.07,10.0,Calm,Calm,-,N/A,,Overcast,0,2013-02-22 07:56:00